Probability
0 0 0 0 0 0 0 0 0 0 0 0 0 0 0 0 0 0 0 0 1 2 3 3 2 1 0 1 2 1 0 0 0 0 0 1 2 3 3 3 1 0 0
0 0 0 0 0 0 0 0 0 0 0 0 0 0 0 0 0 0 0 0 1 3 4 3 2 2 2 3 3 2 1 0 0 0 0 0 1 2 4 4 2 1 0
0 0 0 0 0 0 0 0 0 0 0 0 0 0 0 0 0 0 0 0 1 3 5 4 3 3 4 3 3 3 2 0 0 0 0 0 0 2 4 4 3 2 1
0 0 0 0 0 0 0 0 0 0 0 0 0 0 0 0 0 0 0 0 1 3 4 3 2 3 4 3 3 4 3 3 2 1 0 1 1 2 3 3 3 2 1
0 0 1 1 1 1 1 1 0 0 0 0 0 0 0 0 0 0 0 0 0 1 2 1 1 2 2 2 4 6 7 8 7 4 2 1 2 2 1 1 3 3 2
0 1 2 2 2 2 2 2 1 1 1 0 0 0 0 0 0 0 0 0 0 0 0 0 0 1 1 2 4 7 8 10 10 8 5 2 1 1 1 1 2 2 2
1 2 3 3 3 3 2 2 2 1 1 1 1 0 0 0 0 0 0 0 0 0 0 0 0 0 0 1 4 6 7 7 8 9 8 6 3 2 2 1 1 1 2
1 2 2 2 2 1 1 1 2 2 2 2 2 1 0 0 0 0 0 0 0 0 1 1 1 0 1 2 3 4 5 5 5 7 8 8 7 5 4 4 3 1 1
3 3 2 1 1 0 0 0 1 1 1 2 2 2 0 0 0 0 0 0 0 0 1 2 1 1 1 3 3 4 5 4 5 5 6 7 9 9 8 8 6 3 1
6 5 4 2 1 0 0 0 1 1 1 2 2 1 0 0 0 0 0 0 0 0 1 1 1 1 2 3 3 3 3 3 3 4 5 7 9 11 12 12 10 6 2
6 6 5 3 2 1 1 1 1 1 1 1 1 0 0 0 0 0 0 0 0 0 0 0 0 1 1 3 3 3 1 1 2 3 5 6 8 10 12 14 12 8 4
3 3 3 2 2 3 3 3 2 1 0 0 0 0 1 0 0 0 0 0 0 0 0 0 0 0 1 2 2 2 1 1 3 3 4 5 6 8 11 13 12 10 7
2 2 3 2 3 4 4 3 2 1 1 1 1 1 1 1 0 0 0 0 0 0 0 0 0 0 0 1 1 1 1 1 2 3 3 3 4 5 8 12 13 12 11
3 4 4 4 5 5 4 3 2 2 2 2 2 3 3 2 1 1 0 0 0 0 0 0 0 0 0 0 0 0 0 1 1 1 2 3 3 3 5 8 10 10 10
5 6 5 5 5 5 4 3 3 2 2 3 5 5 5 4 3 2 1 1 1 0 0 0 0 0 0 0 0 0 0 0 0 0 1 1 2 3 3 5 5 5 5
5 5 5 4 4 4 3 4 4 4 4 6 8 8 7 6 5 3 3 3 3 2 1 1 0 0 0 1 0 0 0 0 0 0 0 0 1 1 2 3 3 3 3
4 4 4 4 4 3 3 4 5 6 6 8 9 9 8 6 4 4 4 4 5 4 3 2 1 0 0 0 0 0 0 0 0 0 0 0 0 0 1 2 2 2 2
4 4 4 4 4 4 4 4 5 6 7 7 7 7 7 5 4 4 4 5 5 4 3 2 2 1 0 0 0 0 0 0 0 0 0 0 0 0 0 1 1 1 1
6 6 6 6 6 6 6 6 6 6 6 6 6 6 6 6 5 4 4 4 4 3 3 3 3 2 0 0 0 0 0 0 0 0 0 0 0 0 0 0 0 0 0
8 7 8 8 8 9 10 9 7 5 4 5 6 6 6 5 4 3 3 3 3 3 3 3 2 1 0 0 0 0 0 0 0 0 0 0 0 0 0 0 0 0 0
7 8 8 8 8 9 10 9 7 5 5 6 7 6 5 4 3 1 1 2 2 3 3 3 2 1 0 0 0 0 0 0 0 0 0 0 0 0 0 0 0 0 0
6 6 5 5 6 6 5 4 5 6 6 6 6 5 4 4 3 1 1 1 1 1 2 3 3 1 0 0 0 0 0 0 0 0 0 0 0 0 0 0 0 0 0
4 4 3 3 4 4 3 1 2 4 5 4 3 3 3 3 2 2 1 1 0 0 1 2 3 2 1 0 0 0 0 0 0 0 0 0 0 0 0 0 0 0 0
3 3 3 3 3 3 2 1 1 3 4 3 1 1 2 1 1 1 1 1 0 0 0 1 2 2 1 0 0 0 0 0 0 0 0 1 0 0 0 0 0 0 0
5 4 4 4 4 3 2 1 1 3 4 2 0 0 0 0 0 0 0 0 0 0 0 0 1 1 1 0 0 0 0 0 0 0 0 0 0 0 0 0 0 0 0
7 6 5 5 5 3 1 0 1 4 4 2 0 0 0 0 0 0 0 0 0 0 0 0 0 0 0 0 0 0 0 0 0 0 0 0 0 0 0 0 0 0 0
Wind_Speed
0 0 0 0 0 0 0 0 0 1 1 1 1 2 2 3 3 3 2 5 6 7 8 9 10 10 10 9 9 8 8 8 7 7 6 6 6 6 7 7 7 7 7
1 1 0 0 0 0 1 1 1 1 1 1 2 2 2 2 2 3 2 3 4 5 7 9 9 10 10 10 9 9 8 8 8 7 7 6 6 6 7 7 6 6 6
1 1 0 1 1 1 1 0 1 0 1 1 1 2 2 2 2 3 3 2 2 4 5 6 7 8 9 10 10 9 9 9 8 8 8 7 6 7 7 7 7 6 6
1 1 0 1 1 0 0 0 0 0 1 1 1 1 1 1 2 2 2 2 2 2 3 5 6 7 8 9 9 10 10 10 9 8 8 8 7 7 7 7 7 7 7
1 1 1 1 1 0 0 1 0 0 0 1 1 1 1 1 2 2 2 2 2 2 2 3 5 5 7 8 9 10 10 10 10 10 10 9 9 8 8 8 8 8 8
1 1 0 0 0 0 1 1 0 0 0 1 1 1 1 1 1 1 2 2 2 3 3 3 3 3 5 6 7 8 10 10 10 11 10 10 10 9 9 9 8 8 8
1 1 0 0 0 0 0 0 0 0 1 0 1 1 2 1 1 0 1 1 2 3 3 3 2 2 3 5 7 8 9 10 10 10 10 10 10 10 10 9 9 9 8
0 1 1 1 0 0 0 1 1 0 0 1 1 1 2 3 2 1 1 1 1 1 2 3 3 3 3 3 4 8 8 9 9 10 10 10 10 10 10 10 10 9 9
1 1 1 1 1 1 0 0 0 1 0 0 1 1 1 1 2 2 1 1 1 1 2 2 3 4 4 3 4 6 7 7 8 8 8 9 9 9 9 10 10 10 9
1 1 1 1 1 1 0 0 0 0 1 0 0 0 1 1 1 1 2 2 2 1 2 2 2 3 4 3 4 5 6 6 7 7 7 8 8 8 8 9 9 10 10
2 1 1 1 1 1 0 0 1 1 1 1 1 1 1 0 1 1 2 3 2 1 2 2 2 2 2 3 3 4 5 5 6 7 7 7 7 8 9 9 9 10 10
1 2 1 1 1 0 0 0 0 1 0 0 0 1 1 1 1 1 2 2 2 2 1 1 1 2 2 2 3 4 3 4 5 6 7 7 7 8 9 9 9 9 10
1 1 0 0 0 0 0 1 1 1 0 1 0 0 1 1 1 1 1 1 2 2 2 1 1 1 1 2 2 3 3 4 4 5 6 6 7 7 8 8 9 9 9
1 1 0 0 0 0 1 1 1 0 1 1 1 0 0 1 1 1 1 1 1 1 1 2 1 1 2 2 2 3 3 4 4 4 5 5 5 6 7 7 8 8 8
1 1 1 1 0 1 1 1 1 1 1 1 1 1 0 0 0 0 1 1 2 1 2 2 2 2 2 1 1 2 2 3 3 4 4 5 5 5 5 6 6 6 6
1 1 1 1 1 1 1 1 1 1 1 1 0 1 1 1 1 0 0 1 1 2 2 1 2 2 2 2 1 1 2 3 3 3 3 4 4 4 4 5 5 5 5
2 2 1 1 1 1 1 1 1 1 1 0 1 1 1 1 0 1 0 0 1 1 2 2 1 2 2 2 2 2 2 2 2 4 4 4 4 4 4 4 4 4 4
2 2 1 1 1 1 1 1 1 1 1 1 0 0 1 1 1 1 1 1 1 1 2 2 2 1 2 2 2 2 2 2 2 2 3 3 3 3 4 4 4 4 4
1 1 2 2 2 2 2 2 2 2 2 2 2 1 2 0 1 1 1 1 1 1 1 1 2 1 1 1 2 2 2 2 2 2 2 3 3 3 4 5 5 5 5
2 2 2 2 2 2 2 2 2 2 2 2 2 2 2 2 2 2 1 1 1 1 1 1 1 1 1 1 1 1 2 2 2 2 1 1 2 3 4 4 5 5 6
2 2 2 2 2 2 2 3 2 2 2 2 2 2 3 3 3 2 1 1 1 1 1 1 2 1 2 1 1 1 2 2 2 1 1 1 1 2 2 3 4 5 5
1 1 1 2 2 2 2 3 3 2 2 2 2 3 3 3 3 3 3 2 3 2 2 2 2 2 3 2 2 2 1 1 2 1 1 2 1 2 2 2 3 4 5
1 1 2 2 2 3 3 3 3 2 2 3 3 2 3 2 1 2 3 2 2 3 4 4 3 4 3 3 2 2 2 2 2 1 1 2 1 2 2 2 4 4 5
2 2 3 3 3 4 4 4 3 3 2 3 3 3 3 2 1 1 1 2 2 2 2 3 4 4 4 3 3 3 3 2 2 1 1 2 2 2 2 2 4 5 5
2 2 2 3 4 5 5 4 3 2 3 3 3 2 3 3 3 2 1 1 2 3 2 2 3 3 3 3 2 2 1 1 2 2 1 2 2 2 2 2 3 4 5
2 2 2 3 4 4 4 4 4 2 3 3 2 2 4 4 3 3 2 2 3 3 2 3 2 2 2 2 2 3 3 2 1 2 2 2 1 1 2 2 2 2 3
Wind_Direction
174 180 6 37 3 199 194 226 249 278 274 268 255 240 240 230 221 218 231 232 228 223 221 211 206 207 206 205 204 202 199 199 198 197 201 203 209 211 210 212 213 212 212
180 179 258 292 265 229 220 224 247 250 257 255 262 257 248 235 221 216 220 237 233 226 219 213 209 210 209 206 204 206 206 206 204 199 199 203 208 213 213 211 209 211 212
189 181 199 264 269 244 215 235 296 277 257 259 260 262 251 239 227 221 219 219 228 223 215 212 207 210 214 214 207 209 211 209 208 204 202 203 207 212 214 210 211 209 211
188 176 214 267 276 260 214 224 259 327 318 323 296 288 270 249 242 233 222 213 209 213 216 212 211 211 216 219 216 216 216 213 213 211 210 209 210 214 216 214 213 212 212
189 164 213 278 321 353 313 281 58 151 282 316 292 289 284 259 250 235 216 211 208 205 208 212 213 216 223 224 225 223 222 219 218 216 215 212 214 216 220 221 220 218 216
155 152 160 316 351 47 346 350 13 53 239 290 311 332 319 295 275 243 234 215 211 214 212 217 219 223 229 229 230 228 226 224 223 220 218 217 217 217 218 219 218 218 218
165 148 175 37 56 131 266 309 85 49 352 28 53 348 344 333 312 286 244 218 223 221 209 214 222 221 230 231 233 235 233 230 225 221 220 221 221 221 222 220 218 217 215
217 172 161 177 170 135 27 39 95 88 332 72 131 90 355 348 348 343 326 254 265 238 224 221 218 221 225 228 236 237 239 240 231 225 223 224 225 222 220 219 217 217 217
39 86 143 148 135 146 162 305 138 160 209 345 99 135 145 252 316 329 330 326 306 266 252 235 228 229 228 227 235 240 240 239 235 235 233 229 224 221 218 217 218 218 217
40 68 82 95 104 113 117 298 82 166 158 209 297 99 167 173 200 315 325 328 311 292 278 261 247 236 231 227 231 234 234 231 231 236 239 234 229 224 220 217 221 220 219
32 51 71 82 90 107 116 44 60 88 164 188 194 176 161 165 196 201 281 310 320 302 282 266 254 246 244 237 235 236 230 232 235 239 240 237 235 231 225 223 227 226 224
11 19 64 69 78 110 143 131 97 102 131 181 191 175 166 182 194 197 236 275 291 297 294 285 261 256 252 245 249 251 241 240 242 244 240 236 236 234 230 229 230 230 229
355 333 4 66 60 233 129 100 89 80 77 102 150 213 208 222 194 185 207 253 280 296 305 299 282 282 275 263 260 260 250 243 238 238 238 236 236 235 232 231 232 233 233
229 222 141 135 197 115 104 94 83 60 68 73 61 87 232 279 217 199 196 193 277 310 308 297 314 301 298 269 269 256 254 244 234 229 230 230 234 238 235 227 228 232 233
213 189 169 172 186 134 122 112 91 50 64 54 52 57 44 335 354 237 212 199 192 245 282 295 301 318 311 277 288 258 260 256 243 237 233 230 227 234 238 227 219 221 227
223 189 192 182 180 178 162 140 133 106 90 51 79 68 37 355 5 9 220 223 212 208 247 270 266 306 317 323 335 272 266 270 248 238 233 232 231 230 233 218 215 217 218
225 219 205 182 179 177 173 161 174 147 121 59 28 56 348 341 356 347 348 322 223 206 234 275 271 295 299 323 334 315 292 270 258 238 235 233 228 219 216 203 199 207 216
224 213 199 193 205 203 185 176 197 179 176 203 273 318 304 323 338 322 332 298 258 234 218 262 289 297 288 309 321 317 313 296 280 261 249 241 226 213 208 208 207 208 214
226 204 193 202 209 213 209 209 207 209 209 219 223 229 258 265 290 285 274 277 270 268 223 237 278 296 288 316 328 318 313 312 290 273 246 244 234 230 223 216 215 211 210
207 208 203 210 217 219 219 220 217 221 226 232 231 233 242 236 245 260 262 271 277 288 252 240 273 294 287 301 305 310 316 322 305 309 310 278 263 254 243 227 222 218 212
212 197 201 222 233 229 229 218 216 221 229 247 256 254 251 248 251 248 261 252 243 243 245 249 263 276 279 282 274 274 280 307 295 308 305 294 283 276 264 243 230 225 221
225 188 214 228 236 246 251 213 199 212 223 234 258 274 273 265 278 284 286 253 224 222 226 229 243 256 264 263 265 256 257 286 286 314 295 292 290 279 276 254 238 226 224
219 214 228 227 242 261 256 247 225 208 224 237 247 261 275 276 288 297 304 309 278 263 226 215 229 242 246 242 245 254 246 248 259 284 260 273 281 280 282 269 243 230 230
230 233 238 235 242 262 257 249 241 216 227 240 241 241 253 273 285 297 292 308 308 303 266 233 233 241 244 238 225 229 243 255 270 273 230 255 274 277 288 280 259 241 238
244 243 241 236 241 263 263 250 227 223 239 256 255 238 232 241 253 245 214 272 298 306 303 278 269 270 264 244 210 187 206 240 278 270 216 239 262 283 283 273 270 259 253
246 250 254 246 242 256 262 248 217 215 240 256 262 250 233 238 237 215 206 224 259 281 304 316 315 308 285 250 207 204 207 215 249 262 216 219 243 263 284 272 276 282 269